User: anonymous   Login
Location: College Park
(38.9810°N, 76.9370°W)
Time: 15:06:32
(UTC-05:00)
Language:

Hubble Space Telescope - Orbit

View from above orbital plane
View from above orbital plane
View from above satellite
View from above satellite

Ground track
Ground track

The orbit data is extracted from the following two-line orbital elements,

1 20580U 90037B   18322.94531250 +.00000426 +00000-0 +15039-4 0  9993
2 20580 028.4682 171.9998 0002718 008.7343 126.0299 15.09132111368789
Epoch (UTC): 18 November 2018 22:41:15
Eccentricity: 0.0002718
inclination: 28.4682°
perigee height: 537 km
apogee height: 541 km
right ascension of ascending node: 171.9998°
argument of perigee: 8.7343°
revolutions per day: 15.09132111
mean anomaly at epoch: 126.0299°
orbit number at epoch: 36878

The dashed part of the orbit path shows where the satellite is in the earth's shadow,  

DLR